Weather in Périgueux

France     45°10′57″N   0°43′09″E
temp.,
°C
wind,
m/s
gust,
m/s
humid.,
%
clouds,
%
prec.,
mm/h
press.,
hPa
HPBL,
m
11 april, sun
sun1123:00+9sse3109553 0.7 1012416
02:00+8sse3997100 0.8 1011350
05:00+10sse41196100 0.9 1009642
08:00+8nw2798100 9.3 1011395
11:00+9nw479697 1.9 1013478
14:00+9nnw4684100 2.1 1016828
17:00+9nw4763100 0.2 1018987
20:00+8nw357299 0.3 1020188
12 april, mon
mon1223:00+4wnw259530 0.4 1023121
02:00+4nne389498 0.5 1025352
05:00+3n279453 0.0 1027271
08:00+2n27964 0.0 1029220
11:00+7nne35665 0.0 1030966
14:00+11n45375 0.0 10292079
17:00+12n45345 0.0 10282128
20:00+9n48542 0.0 1029266
13 april, tue
tue1323:00+4nne23710 0.0 103153
02:00+2nne22780 0.0 103223
05:00+1ne22820 0.0 103126
08:00+1ne23810 0.0 103175
11:00+9nne355541 0.0 1030934
14:00+13nne4540100 0.0 10281763
17:00+13ne453799 0.0 10261717
20:00+9ne3853100 0.0 1026311
14 april, wed
wed1423:00+6ne4125898 0.0 1027450
02:00+3ne411688 0.0 1027332
05:00+1ne3117373 0.0 1026264
08:00+2ne3106854 0.0 1026315
11:00+10ene58405 0.0 1025916
14:00+15ne562813 0.0 10231622
17:00+15nne662920 0.0 10211699
20:00+10nne510452 0.0 1023613
15 april, thu
thu1523:00+7ne513560 0.0 1024593
02:00+4ne412660 0.0 1025434
05:00+2ne310770 0.0 1025260
08:00+2ne311740 0.0 1025316
11:00+9ne58410 0.0 10241048
14:00+14ne56280 0.0 10221849
17:00+14nne56280 0.0 10202041
20:00+10nne510420 0.0 1020568